When you browse on this site, cookies collect data to enhance your experience and personalize the content and advertising you see.
Visit our Privacy Policy to learn more. By continuing to use the site, you agree to this use of cookies and data.
  • En España
  • Lista de países
  • Para 7 días
  • Temperatura del agua
  • El tiempo en el mapa
  • Informadores
  • user-avatar
    Iniciar sesión

    Tiempo cada hora Jarim

    Hoy, 20 Septiembre, Viernes

    Tiempo Temperatura Precipitaciones Viento Presión Humedad
    00:00 +16°C° 0 mm 1 mps 552 mmHg 56%
    01:00 +16°C° 0 mm 1 mps 552 mmHg 54%
    02:00 +16°C° 0 mm 1 mps 551 mmHg 52%
    03:00 +15°C° 0 mm 1 mps 551 mmHg 50%
    04:00 +16°C° 0 mm 1 mps 551 mmHg 48%
    05:00 +16°C° 0 mm 1 mps 552 mmHg 46%
    06:00 +16°C° 0 mm 1 mps 552 mmHg 45%
    07:00 +17°C° 0 mm 2 mps 553 mmHg 43%
    08:00 +19°C° 0 mm 3 mps 554 mmHg 41%
    09:00 +20°C° 0 mm 4 mps 555 mmHg 39%
    10:00 +21°C° 0 mm 4 mps 555 mmHg 38%
    11:00 +21°C° 0 mm 4 mps 555 mmHg 36%
    12:00 +22°C° 0 mm 4 mps 555 mmHg 35%
    13:00 +21°C° 0.1 mm 4 mps 554 mmHg 38%
    14:00 +21°C° 0.1 mm 4 mps 554 mmHg 41%
    15:00 +20°C° 0.1 mm 4 mps 553 mmHg 45%
    16:00 +20°C° 0.2 mm 4 mps 553 mmHg 48%
    17:00 +19°C° 0.2 mm 4 mps 552 mmHg 52%
    18:00 +18°C° 0.2 mm 3 mps 552 mmHg 56%
    19:00 +18°C° 0.1 mm 2 mps 552 mmHg 59%
    20:00 +17°C° 0.1 mm 2 mps 552 mmHg 62%
    21:00 +18°C° 0.1 mm 1 mps 552 mmHg 65%
    22:00 +18°C° 0 mm 1 mps 552 mmHg 63%
    23:00 +16°C° 0 mm 2 mps 552 mmHg 62%

    Mañana, 21 Septiembre, Sábado

    Tiempo Temperatura Precipitaciones Viento Presión Humedad
    00:00 +16°C° 0 mm 2 mps 552 mmHg 60%
    01:00 +16°C° 0 mm 2 mps 551 mmHg 54%
    02:00 +15°C° 0 mm 2 mps 551 mmHg 48%
    03:00 +14°C° 0 mm 3 mps 550 mmHg 42%
    04:00 +13°C° 0 mm 3 mps 551 mmHg 43%
    05:00 +13°C° 0 mm 3 mps 551 mmHg 45%
    06:00 +13°C° 0 mm 3 mps 551 mmHg 47%
    07:00 +15°C° 0 mm 4 mps 552 mmHg 40%
    08:00 +17°C° 0 mm 5 mps 553 mmHg 34%
    09:00 +20°C° 0 mm 5 mps 555 mmHg 28%
    10:00 +20°C° 0 mm 5 mps 555 mmHg 26%
    11:00 +21°C° 0 mm 5 mps 555 mmHg 23%
    12:00 +22°C° 0 mm 4 mps 555 mmHg 21%
    13:00 +22°C° 0 mm 4 mps 554 mmHg 21%
    14:00 +23°C° 0 mm 4 mps 554 mmHg 21%
    15:00 +23°C° 0 mm 4 mps 554 mmHg 22%
    16:00 +22°C° 0.1 mm 4 mps 553 mmHg 28%
    17:00 +20°C° 0.1 mm 4 mps 553 mmHg 34%
    18:00 +19°C° 0.1 mm 4 mps 552 mmHg 40%
    19:00 +19°C° 0.1 mm 3 mps 552 mmHg 44%
    20:00 +18°C° 0.1 mm 2 mps 552 mmHg 48%
    21:00 +18°C° 0.1 mm 1 mps 552 mmHg 52%
    22:00 +18°C° 0 mm 1 mps 552 mmHg 50%
    23:00 +16°C° 0 mm 2 mps 552 mmHg 49%

    Pasado mañana, 22 Septiembre, Domingo

    Tiempo Temperatura Precipitaciones Viento Presión Humedad
    00:00 +16°C° 0 mm 2 mps 552 mmHg 48%
    01:00 +15°C° 0 mm 2 mps 551 mmHg 45%
    02:00 +15°C° 0 mm 2 mps 551 mmHg 41%
    03:00 +14°C° 0 mm 2 mps 550 mmHg 38%
    04:00 +14°C° 0 mm 2 mps 551 mmHg 38%
    05:00 +14°C° 0 mm 2 mps 551 mmHg 37%
    06:00 +14°C° 0 mm 2 mps 551 mmHg 37%
    07:00 +14°C° 0 mm 3 mps 552 mmHg 34%
    08:00 +17°C° 0 mm 4 mps 553 mmHg 30%
    09:00 +19°C° 0 mm 5 mps 555 mmHg 27%
    10:00 +20°C° 0 mm 5 mps 555 mmHg 25%
    11:00 +21°C° 0 mm 4 mps 555 mmHg 23%
    12:00 +22°C° 0 mm 4 mps 555 mmHg 22%
    13:00 +22°C° 0 mm 4 mps 554 mmHg 22%
    14:00 +22°C° 0 mm 3 mps 554 mmHg 22%
    15:00 +24°C° 0 mm 3 mps 554 mmHg 22%
    16:00 +21°C° 0.1 mm 3 mps 553 mmHg 30%
    17:00 +20°C° 0.1 mm 4 mps 553 mmHg 39%
    18:00 +19°C° 0.1 mm 4 mps 552 mmHg 47%
    19:00 +18°C° 0.2 mm 3 mps 552 mmHg 51%
    20:00 +17°C° 0.2 mm 2 mps 552 mmHg 55%
    21:00 +18°C° 0.2 mm 1 mps 552 mmHg 59%
    22:00 +16°C° 0 mm 1 mps 552 mmHg 62%
    23:00 +16°C° 0 mm 1 mps 552 mmHg 66%

    23 Septiembre, Lunes

    Tiempo Temperatura Precipitaciones Viento Presión Humedad
    00:00 +14°C° 0 mm 0 mps 551 mmHg 69%
    01:00 +14°C° 0 mm 0 mps 551 mmHg 69%
    02:00 +14°C° 0 mm 0 mps 551 mmHg 69%
    03:00 +13°C° 0 mm 0 mps 550 mmHg 69%
    04:00 +13°C° 0 mm 0 mps 551 mmHg 68%
    05:00 +13°C° 0 mm 0 mps 551 mmHg 67%
    06:00 +13°C° 0 mm 0 mps 551 mmHg 65%
    07:00 +16°C° 0 mm 1 mps 552 mmHg 54%
    08:00 +18°C° 0 mm 2 mps 554 mmHg 44%
    09:00 +20°C° 0 mm 3 mps 555 mmHg 33%
    10:00 +20°C° 0 mm 3 mps 555 mmHg 31%
    11:00 +21°C° 0 mm 3 mps 555 mmHg 28%
    12:00 +22°C° 0 mm 3 mps 555 mmHg 26%
    13:00 +22°C° 0.1 mm 4 mps 554 mmHg 30%
    14:00 +21°C° 0.1 mm 4 mps 554 mmHg 35%
    15:00 +21°C° 0.1 mm 5 mps 553 mmHg 39%
    16:00 +20°C° 0.4 mm 4 mps 553 mmHg 45%
    17:00 +19°C° 0.4 mm 3 mps 552 mmHg 52%
    18:00 +18°C° 0.4 mm 2 mps 552 mmHg 58%
    19:00 +18°C° 0.1 mm 1 mps 552 mmHg 61%
    20:00 +18°C° 0.1 mm 1 mps 552 mmHg 65%
    21:00 +16°C° 0.1 mm 1 mps 552 mmHg 68%
    22:00 +16°C° 0 mm 1 mps 552 mmHg 68%
    23:00 +16°C° 0 mm 1 mps 552 mmHg 68%

    24 Septiembre, Martes

    Tiempo Temperatura Precipitaciones Viento Presión Humedad
    00:00 +16°C° 0 mm 1 mps 551 mmHg 67%
    01:00 +15°C° 0 mm 1 mps 551 mmHg 67%
    02:00 +15°C° 0 mm 1 mps 551 mmHg 66%
    03:00 +15°C° 0 mm 1 mps 550 mmHg 66%
    04:00 +14°C° 0 mm 1 mps 551 mmHg 63%
    05:00 +14°C° 0 mm 1 mps 551 mmHg 59%
    06:00 +14°C° 0 mm 1 mps 551 mmHg 56%
    07:00 +16°C° 0 mm 2 mps 552 mmHg 47%
    08:00 +18°C° 0 mm 2 mps 554 mmHg 38%
    09:00 +20°C° 0 mm 2 mps 555 mmHg 29%
    10:00 +21°C° 0 mm 2 mps 555 mmHg 27%
    11:00 +22°C° 0 mm 3 mps 555 mmHg 25%
    12:00 +24°C° 0 mm 3 mps 555 mmHg 22%
    13:00 +22°C° 0 mm 3 mps 554 mmHg 28%
    14:00 +22°C° 0 mm 4 mps 554 mmHg 33%
    15:00 +21°C° 0 mm 4 mps 553 mmHg 39%
    16:00 +20°C° 0.4 mm 3 mps 553 mmHg 46%
    17:00 +19°C° 0.4 mm 2 mps 552 mmHg 53%
    18:00 +18°C° 0.4 mm 2 mps 552 mmHg 61%
    19:00 +18°C° 0.3 mm 2 mps 552 mmHg 60%
    20:00 +18°C° 0.3 mm 1 mps 552 mmHg 59%
    21:00 +18°C° 0.3 mm 1 mps 552 mmHg 59%
    22:00 +18°C° 0 mm 1 mps 552 mmHg 58%
    23:00 +18°C° 0 mm 1 mps 552 mmHg 57%

    25 Septiembre, Miércoles

    Tiempo Temperatura Precipitaciones Viento Presión Humedad
    00:00 +18°C° 0 mm 1 mps 552 mmHg 56%
    01:00 +16°C° 0 mm 1 mps 552 mmHg 54%
    02:00 +16°C° 0 mm 1 mps 551 mmHg 51%
    03:00 +15°C° 0 mm 1 mps 551 mmHg 49%
    04:00 +15°C° 0 mm 2 mps 551 mmHg 47%
    05:00 +15°C° 0 mm 2 mps 551 mmHg 45%
    06:00 +14°C° 0 mm 2 mps 551 mmHg 43%
    07:00 +16°C° 0 mm 3 mps 552 mmHg 40%
    08:00 +18°C° 0 mm 3 mps 554 mmHg 38%
    09:00 +19°C° 0 mm 4 mps 555 mmHg 35%
    10:00 +20°C° 0 mm 3 mps 555 mmHg 33%
    11:00 +21°C° 0 mm 3 mps 555 mmHg 30%
    12:00 +23°C° 0 mm 2 mps 555 mmHg 28%
    13:00 +21°C° 0 mm 2 mps 554 mmHg 32%
    14:00 +21°C° 0 mm 3 mps 554 mmHg 36%
    15:00 +21°C° 0 mm 3 mps 553 mmHg 40%
    16:00 +20°C° 0.3 mm 2 mps 553 mmHg 44%
    17:00 +19°C° 0.3 mm 2 mps 553 mmHg 49%
    18:00 +19°C° 0.3 mm 2 mps 553 mmHg 53%
    19:00 +18°C° 0.3 mm 2 mps 553 mmHg 56%
    20:00 +18°C° 0.3 mm 1 mps 553 mmHg 59%
    21:00 +18°C° 0.3 mm 1 mps 553 mmHg 62%
    22:00 +18°C° 0 mm 1 mps 553 mmHg 60%
    23:00 +18°C° 0 mm 1 mps 553 mmHg 58%
    Mostrar más